britishexpats.com alexa rank chart, britishexpats.com alexa rank daily changes

britishexpats.com alexa rank chart, britishexpats.com alexa rank daily changes

britishexpats.com
Actual rank:
65 621

RANK HISTORY

Date Rank Diff
2016/12/09 65 621 +1 366
2016/12/08 64 255 +209
2016/12/07 64 046 +220
2016/12/06 63 826 -1 362
2016/12/05 65 188 -501
2016/12/04 65 689 +103
2016/12/02 65 586 -1 716
2016/12/01 67 302 -188
2016/11/30 67 490 -135
2016/11/29 67 625 -251
2016/11/28 67 876 +129
2016/11/27 67 747 -344
2016/11/26 68 091 +1 645
2016/11/25 66 446 +1 348
2016/11/24 65 098 +692
2016/11/23 64 406 +1 296
2016/11/19 63 110 +650
2016/11/18 62 460 +71
2016/11/17 62 389 +596
2016/11/16 61 793 -1 765
2016/11/15 63 558 -273
2016/11/14 63 831 +2 704
2016/11/13 61 127 +1 019
2016/11/12 60 108 -67
2016/11/11 60 175 +214
2016/11/10 59 961 -192
2016/11/09 60 153 -1 389
2016/11/08 61 542 -169
2016/11/07 61 711 +305
2016/11/06 61 406 +149
2016/11/05 61 257 +939
2016/11/04 60 318 -1 497
2016/11/03 61 815 -967
2016/11/02 62 782 +436
2016/11/01 62 346 +499
2016/10/31 61 847 +1 006
2016/10/30 60 841 +565
2016/10/29 60 276 +349
2016/10/28 59 927 +508
2016/10/27 59 419 +1 546
2016/10/26 57 873 -1 202
2016/10/25 59 075 +185
2016/10/24 58 890 -103
2016/10/23 58 993 -232
2016/10/22 59 225 -116
2016/10/21 59 341 -860
2016/10/20 60 201 -641
2016/10/19 60 842 -288
2016/10/18 61 130 -1 359
2016/10/17 62 489 +887
2016/10/16 61 602 +1 874
2016/10/15 59 728 -2 038
2016/10/14 61 766 -136
2016/10/13 61 902 -444
2016/10/12 62 346 +1 486
2016/10/11 60 860 +729
2016/10/10 60 131

WIDGET FOR YOUR SITE

DOMAINS WITH THE NEAREST RANK

Domain Rank
brightlocal.com 65 616
darmowetv.pl 65 617
espacefrancais.com 65 618
lesswrong.com 65 619
laczynaspilka.pl 65 620
britishexpats.com 65 621
bonde.com.br 65 622
delokos.com 65 623
links.hr 65 624
facturadirecta.com 65 625
unipg.it 65 626

DOMAINS WITH THE NEAREST RANK BY TLD .com

Domain Rank
pepsico.com 65 614
safedownloadcenter.com 65 615
brightlocal.com 65 616
espacefrancais.com 65 618
lesswrong.com 65 619
britishexpats.com 65 621
delokos.com 65 623
facturadirecta.com 65 625
barasa88888-animegame-blog96.com 65 627
pphosted.com 65 630
rainbowturtletranslation.com 65 631